Regional Weather Roundup
Issued by NWS

Home | Current Version | Previous Version | Graphics & Text | Print | Product List | Glossary On
Versions: 1 2 3 4 5 6 7 8 9 10 11 12 13 14 15 16 17 18 19 20 21 22 23 24 25 26 27 28 29 30 31 32 33 34 35 36 37 38 39 40 41 42 43 44 45 46 47 48 49 50
000
ASUS43 KIND 030809
RWRIN

WEATHER ROUNDUP FOR INDIANA
NATIONAL WEATHER SERVICE INDIANAPOLIS IN
300 AM EST SAT DEC 03 2016

NOTE: "FAIR" INDICATES FEW OR NO CLOUDS BELOW 12,000 FEET WITH NO
SIGNIFICANT WEATHER AND/OR OBSTRUCTIONS TO VISIBILITY.

* - STATION DOES NOT REPORT WEATHER SUCH AS PRECIPITATION OR FOG.

+ - STATION NOT QUALITY CONTROLLED BY THE NATIONAL WEATHER SERVICE.
    USE DATA WITH CAUTION...ESPECIALLY DEWPOINT AND RELATIVE
    HUMIDITY OBSERVATIONS.

INZ001>003-010>013-019-020-030900-
NORTHWEST INDIANA

CITY           SKY/WX    TMP DP  RH WIND       PRES   REMARKS
GARY /AIRPORT/ CLOUDY    34  24  66 W7        30.33R WCI  28
KNOX *+        CLOUDY    34  10  37 W9        30.32R WCI  26
LA PORTE +     CLOUDY    36  31  83 W5        30.31R
MICHIGAN CITY+ CLOUDY    36  28  75 NW6       30.31R
RENSSELAER +     N/A     34  30  86 W3        30.34R
VALPARAISO     CLOUDY    35  25  66 W8        30.32R WCI  29

$$

LMZ046-743>745-030900-
SOUTHERN LAKE MICHIGAN

STATION/POSITION TIME  TEMP    WIND        PRES    WAVE
                       AIR SEA DIR/SP/G            HT
                 (UTC) (F)     (DEG/KT/KT) (MB)    (FT)
BURNS HARBOR     0740   37     290/  9/ 13 1026.4F
MICHIGAN CITY    0740   37     270/ 12/ 13   N/A

$$

INZ004-005-014>016-021>024-030900-
NORTH CENTRAL INDIANA

CITY           SKY/WX    TMP DP  RH WIND       PRES   REMARKS
GOSHEN         CLOUDY    35  26  69 NW3       30.28F
LOGANSPORT +   CLOUDY    34  28  80 CALM      30.33R
PERU/GRISSOM   CLOUDY    35  32  88 W6        30.30R WCI  30
ROCHESTER +    CLOUDY    37  30  75 W6        30.32R
SOUTH BEND     CLOUDY    34  28  79 CALM      30.30S
WARSAW +       CLOUDY    34  28  80 W3        30.29S

$$

INZ006>009-017-018-025>027-030900-
NORTHEAST INDIANA

CITY           SKY/WX    TMP DP  RH WIND       PRES   REMARKS
ANGOLA *+      CLOUDY    36  28  75 W3        30.27S
AUBURN +       CLOUDY    34  28  80 CALM      30.29S
FORT WAYNE     CLOUDY    35  29  78 W3        30.30R
HUNTINGTON +   CLOUDY    35  31  86 CALM      30.30R
KENDALLVILLE + CLOUDY    34  28  78 CALM      30.28S

$$

INZ028-029-035-036-043>045-051>053-030900-
WEST CENTRAL INDIANA

CITY           SKY/WX    TMP DP  RH WIND       PRES   REMARKS
CRAWFORDSVL +  CLOUDY    35  30  82 W5        30.33S WCI  31
GREENCASTLE +  CLOUDY    36  32  87 CALM      30.35R
LAFAYETTE      CLOUDY    35  30  82 SW3       30.34R
TERRE HAUTE    CLOUDY    38  33  82 W3        30.37R

$$

INZ030>032-037>040-046>048-054>057-064-065-030900-
CENTRAL INDIANA

CITY           SKY/WX    TMP DP  RH WIND       PRES   REMARKS
CP ATTERBURY + CLOUDY    37  32  81 CALM      30.34R
FISHERS *+     CLOUDY    36  34  93 CALM      30.34R
FRANKFORT +    CLOUDY    38  32  78 W5        30.35R
GREENWOOD *+   CLOUDY    38  35  89 W3        30.34R
INDIANAPOLIS   NOT AVBL
-EAGLE CREEK   CLOUDY    38  34  85 NW5       30.33R
MARION +       CLOUDY    35  33  92 W5        30.32R WCI  31
MT COMFORT *+  CLOUDY    36  34  93 NW5       30.33R
SHELBYVILLE    CLOUDY    38  34  85 W6        30.32R
ZIONSVILLE +   CLOUDY    35  28  75 W5        30.34R WCI  31

$$

INZ033-034-041-042-049-050-058-059-030900-
EAST CENTRAL INDIANA

CITY           SKY/WX    TMP DP  RH WIND       PRES   REMARKS
MUNCIE         CLOUDY    37  32  82 W6        30.31R

$$

INZ060-061-067>069-081>083-085>088-030900-
SOUTHWEST INDIANA

CITY           SKY/WX    TMP DP  RH WIND       PRES   REMARKS
EVANSVILLE     NOT AVBL
HUNTINGBURG *+ CLOUDY    37  34  87 NW3       30.37F
WASHINGTON +   CLOUDY    38  34  85 W3        30.37R

$$

INZ062-063-066-070>080-084-089>092-030900-
SOUTH CENTRAL AND SOUTHEAST INDIANA

CITY           SKY/WX    TMP DP  RH WIND       PRES   REMARKS
BLOOMINGTON    CLOUDY    38  31  76 W5        30.35R
MADISON *+     CLOUDY    37  32  81 CALM      30.35R
NORTH VERNON + CLOUDY   N/A N/A N/A CALM      30.33S
SEYMOUR +      CLOUDY    36  32  87 CALM      30.35R

$$




USA.gov is the U.S. government's official web portal to all federal, state and local government web resources and services.